Time,TemperatureF,DewpointF,PressureIn,WindDirection,WindDirectionDegrees,WindSpeedMPH,WindSpeedGustMPH,Humidity,HourlyPrecipIn,Conditions,Clouds,dailyrainin,SoftwareType,DateUTC
2013-01-01 00:03:00,11.9,8.5,30.51,SSE,168,0.0,3.0,86,0.00,,,0.00,WeatherTracker,2013-01-01 08:03:00,
2013-01-01 00:08:00,11.3,7.4,30.51,South,169,1.0,2.0,84,0.00,,,0.00,WeatherTracker,2013-01-01 08:08:00,
2013-01-01 00:13:00,10.8,7.5,30.51,South,169,2.0,2.0,86,0.00,,,0.00,WeatherTracker,2013-01-01 08:13:00,
2013-01-01 00:18:00,11.2,8.1,30.50,South,169,2.0,3.0,87,0.00,,,0.00,WeatherTracker,2013-01-01 08:18:00,
2013-01-01 00:23:00,11.9,9.0,30.50,South,170,2.0,4.0,88,0.00,,,0.00,WeatherTracker,2013-01-01 08:23:00,
2013-01-01 00:28:00,11.6,7.5,30.49,South,169,0.0,0.0,83,0.00,,,0.00,WeatherTracker,2013-01-01 08:28:00,
2013-01-01 00:34:00,10.7,6.8,30.49,South,169,0.0,2.0,84,0.00,,,0.00,WeatherTracker,2013-01-01 08:34:00,
2013-01-01 00:39:00,10.4,7.1,30.49,South,170,0.0,2.0,86,0.00,,,0.00,WeatherTracker,2013-01-01 08:39:00,
2013-01-01 00:44:00,10.0,6.7,30.49,South,170,0.0,0.0,86,0.00,,,0.00,WeatherTracker,2013-01-01 08:44:00,
2013-01-01 00:49:00,9.5,6.2,30.49,South,170,1.0,0.0,86,0.00,,,0.00,WeatherTracker,2013-01-01 08:49:00,
2013-01-01 00:54:00,9.0,5.7,30.49,South,170,2.0,3.0,86,0.00,,,0.00,WeatherTracker,2013-01-01 08:54:00,
2013-01-01 00:59:00,9.1,6.3,30.48,South,170,3.0,3.0,88,0.00,,,0.00,WeatherTracker,2013-01-01 08:59:00,
2013-01-01 01:04:00,9.2,6.4,30.49,South,171,3.0,3.0,88,0.00,,,0.00,WeatherTracker,2013-01-01 09:04:00,
2013-01-01 01:09:00,9.2,6.4,30.49,South,171,3.0,4.0,88,0.00,,,0.00,WeatherTracker,2013-01-01 09:09:00,
2013-01-01 01:14:00,9.4,6.8,30.49,South,171,2.0,4.0,89,0.00,,,0.00,WeatherTracker,2013-01-01 09:14:00,
2013-01-01 01:19:00,9.5,6.7,30.49,South,171,0.0,4.0,88,0.00,,,0.00,WeatherTracker,2013-01-01 09:19:00,
2013-01-01 01:24:00,9.1,6.0,30.50,South,171,0.0,4.0,87,0.00,,,0.00,WeatherTracker,2013-01-01 09:24:00,
2013-01-01 01:29:00,9.0,6.2,30.50,South,171,0.0,2.0,88,0.00,,,0.00,WeatherTracker,2013-01-01 09:29:00,
2013-01-01 01:34:00,9.1,6.3,30.50,South,171,0.0,2.0,88,0.00,,,0.00,WeatherTracker,2013-01-01 09:34:00,
2013-01-01 01:39:00,9.2,6.6,30.50,South,171,0.0,0.0,89,0.00,,,0.00,WeatherTracker,2013-01-01 09:39:00,
2013-01-01 01:44:00,9.4,6.8,30.50,South,171,0.0,2.0,89,0.00,,,0.00,WeatherTracker,2013-01-01 09:44:00,
2013-01-01 01:49:00,9.4,6.6,30.50,South,171,0.0,2.0,88,0.00,,,0.00,WeatherTracker,2013-01-01 09:49:00,
2013-01-01 01:54:00,9.4,6.6,30.50,South,171,1.0,1.0,88,0.00,,,0.00,WeatherTracker,2013-01-01 09:54:00,
2013-01-01 01:59:00,9.3,6.5,30.50,South,171,0.0,3.0,88,0.00,,,0.00,WeatherTracker,2013-01-01 09:59:00,
2013-01-01 02:04:00,9.2,6.4,30.50,South,171,0.0,3.0,88,0.00,,,0.00,WeatherTracker,2013-01-01 10:04:00,
2013-01-01 02:09:00,8.9,6.1,30.50,South,171,0.0,2.0,88,0.00,,,0.00,WeatherTracker,2013-01-01 10:09:00,
2013-01-01 02:14:00,8.5,5.7,30.50,South,171,0.0,1.0,88,0.00,,,0.00,WeatherTracker,2013-01-01 10:14:00,
2013-01-01 02:19:00,8.6,6.0,30.50,South,171,0.0,1.0,89,0.00,,,0.00,WeatherTracker,2013-01-01 10:19:00,
2013-01-01 02:24:00,9.0,6.4,30.50,South,171,0.0,1.0,89,0.00,,,0.00,WeatherTracker,2013-01-01 10:24:00,
2013-01-01 02:29:00,9.2,6.9,30.51,South,171,0.0,0.0,90,0.00,,,0.00,WeatherTracker,2013-01-01 10:29:00,
2013-01-01 02:34:00,9.0,6.4,30.51,SSE,167,4.0,0.0,89,0.00,,,0.00,WeatherTracker,2013-01-01 10:34:00,
2013-01-01 02:39:00,8.2,5.1,30.52,SSE,167,1.0,5.0,87,0.00,,,0.00,WeatherTracker,2013-01-01 10:39:00,
2013-01-01 02:44:00,7.7,4.7,30.52,SSE,167,0.0,5.0,87,0.00,,,0.00,WeatherTracker,2013-01-01 10:44:00,
2013-01-01 02:49:00,7.4,4.4,30.52,SSE,167,1.0,4.0,87,0.00,,,0.00,WeatherTracker,2013-01-01 10:49:00,
2013-01-01 02:54:00,7.4,4.6,30.52,SSE,167,0.0,2.0,88,0.00,,,0.00,WeatherTracker,2013-01-01 10:54:00,
2013-01-01 02:59:00,7.3,4.5,30.52,SSE,167,2.0,2.0,88,0.00,,,0.00,WeatherTracker,2013-01-01 10:59:00,
2013-01-01 03:04:00,7.1,4.3,30.52,South,169,3.0,3.0,88,0.00,,,0.00,WeatherTracker,2013-01-01 11:04:00,
2013-01-01 03:09:00,7.4,4.9,30.52,South,170,4.0,4.0,89,0.00,,,0.00,WeatherTracker,2013-01-01 11:09:00,
2013-01-01 03:14:00,8.7,6.4,30.53,South,171,1.0,5.0,90,0.00,,,0.00,WeatherTracker,2013-01-01 11:14:00,
2013-01-01 03:19:00,8.6,6.0,30.53,SSE,165,3.0,5.0,89,0.00,,,0.00,WeatherTracker,2013-01-01 11:19:00,
2013-01-01 03:24:00,8.9,6.6,30.53,SSE,162,3.0,5.0,90,0.00,,,0.00,WeatherTracker,2013-01-01 11:24:00,
2013-01-01 03:30:00,9.2,6.9,30.53,SSE,162,1.0,4.0,90,0.00,,,0.00,WeatherTracker,2013-01-01 11:30:00,
2013-01-01 03:35:00,9.6,7.3,30.53,SSE,162,2.0,3.0,90,0.00,,,0.00,WeatherTracker,2013-01-01 11:35:00,
2013-01-01 03:40:00,9.6,7.0,30.53,SSE,163,3.0,4.0,89,0.00,,,0.00,WeatherTracker,2013-01-01 11:40:00,
2013-01-01 03:45:00,9.5,6.9,30.53,SSE,164,3.0,4.0,89,0.00,,,0.00,WeatherTracker,2013-01-01 11:45:00,
2013-01-01 03:50:00,9.1,6.3,30.54,South,171,4.0,6.0,88,0.00,,,0.00,WeatherTracker,2013-01-01 11:50:00,
2013-01-01 03:55:00,9.3,6.7,30.55,South,171,4.0,6.0,89,0.00,,,0.00,WeatherTracker,2013-01-01 11:55:00,
2013-01-01 04:00:00,9.8,7.2,30.55,South,171,2.0,5.0,89,0.00,,,0.00,WeatherTracker,2013-01-01 12:00:00,
2013-01-01 04:05:00,10.0,7.4,30.56,South,170,1.0,5.0,89,0.00,,,0.00,WeatherTracker,2013-01-01 12:05:00,
2013-01-01 04:10:00,10.5,8.2,30.56,SSE,162,3.0,4.0,90,0.00,,,0.00,WeatherTracker,2013-01-01 12:10:00,
2013-01-01 04:15:00,10.9,8.6,30.56,SSE,159,2.0,4.0,90,0.00,,,0.00,WeatherTracker,2013-01-01 12:15:00,
2013-01-01 04:20:00,11.3,8.9,30.56,SSE,158,2.0,4.0,90,0.00,,,0.00,WeatherTracker,2013-01-01 12:20:00,
2013-01-01 04:25:00,11.6,9.2,30.56,SSE,161,2.0,4.0,90,0.00,,,0.00,WeatherTracker,2013-01-01 12:25:00,
2013-01-01 04:30:00,12.1,9.7,30.57,SE,146,0.0,4.0,90,0.00,,,0.00,WeatherTracker,2013-01-01 12:30:00,
2013-01-01 04:35:00,12.5,10.1,30.57,SE,146,0.0,4.0,90,0.00,,,0.00,WeatherTracker,2013-01-01 12:35:00,
2013-01-01 04:40:00,12.5,9.9,30.58,SSE,147,2.0,2.0,89,0.00,,,0.00,WeatherTracker,2013-01-01 12:40:00,
2013-01-01 04:45:00,12.3,9.4,30.58,SSE,147,1.0,3.0,88,0.00,,,0.00,WeatherTracker,2013-01-01 12:45:00,
2013-01-01 04:50:00,12.4,9.8,30.58,SSE,148,1.0,3.0,89,0.00,,,0.00,WeatherTracker,2013-01-01 12:50:00,
2013-01-01 04:56:00,12.8,10.2,30.58,SSE,148,0.0,3.0,89,0.00,,,0.00,WeatherTracker,2013-01-01 12:56:00,
2013-01-01 05:01:00,13.1,10.5,30.59,SSE,148,0.0,2.0,89,0.00,,,0.00,WeatherTracker,2013-01-01 13:01:00,
2013-01-01 05:06:00,13.3,10.7,30.59,SSE,148,0.0,1.0,89,0.00,,,0.00,WeatherTracker,2013-01-01 13:06:00,
2013-01-01 05:11:00,13.6,11.0,30.59,SSE,148,2.0,2.0,89,0.00,,,0.00,WeatherTracker,2013-01-01 13:11:00,
2013-01-01 05:16:00,13.9,11.3,30.60,SSE,150,3.0,3.0,89,0.00,,,0.00,WeatherTracker,2013-01-01 13:16:00,
2013-01-01 05:21:00,14.1,11.5,30.61,SSE,155,5.0,5.0,89,0.00,,,0.00,WeatherTracker,2013-01-01 13:21:00,
2013-01-01 05:26:00,14.3,11.7,30.61,South,173,4.0,6.0,89,0.00,,,0.00,WeatherTracker,2013-01-01 13:26:00,
2013-01-01 05:31:00,14.6,12.0,30.61,North,360,5.0,6.0,89,0.00,,,0.00,WeatherTracker,2013-01-01 13:31:00,
2013-01-01 05:36:00,14.8,12.2,30.61,SW,231,2.0,6.0,89,0.00,,,0.00,WeatherTracker,2013-01-01 13:36:00,
2013-01-01 05:41:00,15.1,12.2,30.61,West,266,3.0,7.0,88,0.00,,,0.00,WeatherTracker,2013-01-01 13:41:00,
2013-01-01 05:46:00,15.3,12.4,30.61,West,267,3.0,7.0,88,0.00,,,0.00,WeatherTracker,2013-01-01 13:46:00,
2013-01-01 05:51:00,15.4,12.5,30.62,West,268,2.0,7.0,88,0.00,,,0.00,WeatherTracker,2013-01-01 13:51:00,
2013-01-01 05:56:00,15.6,12.7,30.62,West,267,1.0,5.0,88,0.00,,,0.00,WeatherTracker,2013-01-01 13:56:00,
2013-01-01 06:01:00,15.8,12.9,30.62,West,267,2.0,4.0,88,0.00,,,0.00,WeatherTracker,2013-01-01 14:01:00,
2013-01-01 06:06:00,16.0,13.1,30.63,NW,311,0.0,3.0,88,0.00,,,0.00,WeatherTracker,2013-01-01 14:06:00,
2013-01-01 06:11:00,16.0,13.1,30.63,WNW,295,0.0,3.0,88,0.00,,,0.00,WeatherTracker,2013-01-01 14:11:00,
2013-01-01 06:16:00,16.0,13.1,30.62,NW,319,0.0,3.0,88,0.00,,,0.00,WeatherTracker,2013-01-01 14:16:00,
2013-01-01 06:21:00,16.0,13.1,30.63,NW,319,0.0,1.0,88,0.00,,,0.00,WeatherTracker,2013-01-01 14:21:00,
2013-01-01 06:27:00,16.0,13.1,30.63,NW,319,0.0,0.0,88,0.00,,,0.00,WeatherTracker,2013-01-01 14:27:00,
2013-01-01 06:32:00,16.0,13.1,30.63,NW,319,0.0,0.0,88,0.00,,,0.00,WeatherTracker,2013-01-01 14:32:00,
2013-01-01 06:37:00,16.0,13.1,30.64,NW,319,0.0,0.0,88,0.00,,,0.00,WeatherTracker,2013-01-01 14:37:00,
2013-01-01 06:42:00,16.1,13.2,30.64,NNE,31,0.0,0.0,88,0.00,,,0.00,WeatherTracker,2013-01-01 14:42:00,
2013-01-01 06:47:00,16.1,13.2,30.64,NNE,30,0.0,0.0,88,0.00,,,0.00,WeatherTracker,2013-01-01 14:47:00,
2013-01-01 06:52:00,16.1,13.2,30.64,NNE,30,0.0,0.0,88,0.00,,,0.00,WeatherTracker,2013-01-01 14:52:00,
2013-01-01 06:57:00,16.2,13.3,30.64,NNE,31,0.0,0.0,88,0.00,,,0.00,WeatherTracker,2013-01-01 14:57:00,
2013-01-01 07:02:00,16.2,13.3,30.64,East,94,0.0,0.0,88,0.00,,,0.00,WeatherTracker,2013-01-01 15:02:00,
2013-01-01 07:07:00,16.3,13.4,30.64,East,94,0.0,0.0,88,0.00,,,0.00,WeatherTracker,2013-01-01 15:07:00,
2013-01-01 07:12:00,16.4,13.5,30.64,East,94,0.0,0.0,88,0.00,,,0.00,WeatherTracker,2013-01-01 15:12:00,
2013-01-01 07:17:00,16.4,13.5,30.64,East,94,0.0,0.0,88,0.00,,,0.00,WeatherTracker,2013-01-01 15:17:00,
2013-01-01 07:22:00,16.4,13.5,30.65,East,93,0.0,0.0,88,0.00,,,0.00,WeatherTracker,2013-01-01 15:22:00,
2013-01-01 07:27:00,16.4,13.5,30.65,East,93,0.0,0.0,88,0.00,,,0.00,WeatherTracker,2013-01-01 15:27:00,
2013-01-01 07:32:00,16.6,13.7,30.65,North,349,0.0,0.0,88,0.00,,,0.00,WeatherTracker,2013-01-01 15:32:00,
2013-01-01 07:37:00,16.5,13.6,30.65,North,349,0.0,0.0,88,0.00,,,0.00,WeatherTracker,2013-01-01 15:37:00,
2013-01-01 07:42:00,16.6,13.7,30.66,North,349,0.0,0.0,88,0.00,,,0.00,WeatherTracker,2013-01-01 15:42:00,
2013-01-01 07:47:00,16.6,13.7,30.66,North,349,0.0,0.0,88,0.00,,,0.00,WeatherTracker,2013-01-01 15:47:00,
2013-01-01 07:52:00,16.6,13.7,30.66,North,349,0.0,0.0,88,0.00,,,0.00,WeatherTracker,2013-01-01 15:52:00,
2013-01-01 07:57:00,16.7,13.8,30.66,NNE,19,0.0,0.0,88,0.00,,,0.00,WeatherTracker,2013-01-01 15:57:00,
2013-01-01 08:03:00,16.8,13.9,30.67,NNE,19,0.0,0.0,88,0.00,,,0.00,WeatherTracker,2013-01-01 16:03:00,
2013-01-01 08:08:00,16.8,13.6,30.66,NNW,346,0.0,0.0,87,0.00,,,0.00,WeatherTracker,2013-01-01 16:08:00,
2013-01-01 08:13:00,16.9,13.7,30.66,NNW,346,0.0,0.0,87,0.00,,,0.00,WeatherTracker,2013-01-01 16:13:00,
2013-01-01 08:18:00,17.1,14.2,30.66,NNW,346,0.0,0.0,88,0.00,,,0.00,WeatherTracker,2013-01-01 16:18:00,
2013-01-01 08:23:00,17.4,14.5,30.66,NNW,346,0.0,0.0,88,0.00,,,0.00,WeatherTracker,2013-01-01 16:23:00,
2013-01-01 08:28:00,17.4,14.2,30.67,NNW,346,0.0,0.0,87,0.00,,,0.00,WeatherTracker,2013-01-01 16:28:00,
2013-01-01 08:33:00,17.4,14.2,30.67,North,5,1.0,0.0,87,0.00,,,0.00,WeatherTracker,2013-01-01 16:33:00,
2013-01-01 08:38:00,17.5,14.3,30.68,North,350,1.0,2.0,87,0.00,,,0.00,WeatherTracker,2013-01-01 16:38:00,
2013-01-01 08:43:00,17.4,13.9,30.68,NNW,339,2.0,2.0,86,0.00,,,0.00,WeatherTracker,2013-01-01 16:43:00,
2013-01-01 08:48:00,17.5,14.0,30.68,NNW,328,2.0,3.0,86,0.00,,,0.00,WeatherTracker,2013-01-01 16:48:00,
2013-01-01 08:53:00,17.6,14.1,30.68,NW,323,2.0,3.0,86,0.00,,,0.00,WeatherTracker,2013-01-01 16:53:00,
2013-01-01 08:58:00,17.8,14.3,30.69,NNW,342,1.0,3.0,86,0.00,,,0.00,WeatherTracker,2013-01-01 16:58:00,
2013-01-01 09:04:00,18.0,14.3,30.69,NW,306,2.0,3.0,85,0.00,,,0.00,WeatherTracker,2013-01-01 17:04:00,
2013-01-01 09:09:00,18.1,14.4,30.69,NNW,346,1.0,2.0,85,0.00,,,0.00,WeatherTracker,2013-01-01 17:09:00,
2013-01-01 09:14:00,18.2,14.2,30.69,NNE,21,2.0,2.0,84,0.00,,,0.00,WeatherTracker,2013-01-01 17:14:00,
2013-01-01 09:19:00,18.2,14.2,30.69,NNW,331,3.0,3.0,84,0.00,,,0.00,WeatherTracker,2013-01-01 17:19:00,
2013-01-01 09:24:00,18.2,14.2,30.70,NNE,15,3.0,3.0,84,0.00,,,0.00,WeatherTracker,2013-01-01 17:24:00,
2013-01-01 09:29:00,18.2,14.2,30.70,North,350,4.0,5.0,84,0.00,,,0.00,WeatherTracker,2013-01-01 17:29:00,
2013-01-01 09:34:00,18.2,14.2,30.70,NNW,327,4.0,5.0,84,0.00,,,0.00,WeatherTracker,2013-01-01 17:34:00,
2013-01-01 09:39:00,18.3,14.3,30.70,NNW,337,4.0,4.0,84,0.00,,,0.00,WeatherTracker,2013-01-01 17:39:00,
2013-01-01 09:44:00,18.4,14.4,30.71,ENE,58,2.0,4.0,84,0.00,,,0.00,WeatherTracker,2013-01-01 17:44:00,
2013-01-01 09:49:00,18.4,14.1,30.71,NNW,334,4.0,4.0,83,0.00,,,0.00,WeatherTracker,2013-01-01 17:49:00,
2013-01-01 09:54:00,18.2,13.9,30.71,NNW,333,4.0,5.0,83,0.00,,,0.00,WeatherTracker,2013-01-01 17:54:00,
2013-01-01 09:59:00,18.1,13.5,30.71,NNW,334,2.0,5.0,82,0.00,,,0.00,WeatherTracker,2013-01-01 17:59:00,
2013-01-01 10:04:00,18.6,14.3,30.70,NNW,338,0.0,4.0,83,0.00,,,0.00,WeatherTracker,2013-01-01 18:04:00,
2013-01-01 10:09:00,19.9,15.6,30.70,NNW,338,0.0,3.0,83,0.00,,,0.00,WeatherTracker,2013-01-01 18:09:00,
2013-01-01 10:14:00,20.3,14.8,30.70,East,90,1.0,2.0,79,0.00,,,0.00,WeatherTracker,2013-01-01 18:14:00,
2013-01-01 10:19:00,20.0,14.6,30.70,ENE,66,3.0,3.0,79,0.00,,,0.00,WeatherTracker,2013-01-01 18:19:00,
2013-01-01 10:24:00,19.1,14.0,30.70,ENE,69,0.0,3.0,80,0.00,,,0.00,WeatherTracker,2013-01-01 18:24:00,
2013-01-01 10:29:00,19.3,14.4,30.70,ENE,69,0.0,3.0,81,0.00,,,0.00,WeatherTracker,2013-01-01 18:29:00,
2013-01-01 10:34:00,19.6,14.2,30.69,East,94,0.0,3.0,79,0.00,,,0.00,WeatherTracker,2013-01-01 18:34:00,
2013-01-01 10:39:00,19.4,14.0,30.69,East,85,1.0,0.0,79,0.00,,,0.00,WeatherTracker,2013-01-01 18:39:00,
2013-01-01 10:44:00,19.3,13.9,30.69,ENE,71,2.0,2.0,79,0.00,,,0.00,WeatherTracker,2013-01-01 18:44:00,
2013-01-01 10:50:00,19.1,13.7,30.70,ENE,65,5.0,5.0,79,0.00,,,0.00,WeatherTracker,2013-01-01 18:50:00,
2013-01-01 10:55:00,21.3,14.0,30.70,West,271,0.0,5.0,73,0.00,,,0.00,WeatherTracker,2013-01-01 18:55:00,
2013-01-01 11:00:00,20.9,13.6,30.69,West,271,1.0,4.0,73,0.00,,,0.00,WeatherTracker,2013-01-01 19:00:00,
2013-01-01 11:05:00,20.1,12.9,30.68,West,271,0.0,4.0,73,0.00,,,0.00,WeatherTracker,2013-01-01 19:05:00,
2013-01-01 11:10:00,20.0,13.4,30.68,West,271,0.0,3.0,75,0.00,,,0.00,WeatherTracker,2013-01-01 19:10:00,
2013-01-01 11:15:00,20.1,13.5,30.68,West,271,0.0,4.0,75,0.00,,,0.00,WeatherTracker,2013-01-01 19:15:00,
2013-01-01 11:20:00,20.5,13.9,30.68,West,271,1.0,4.0,75,0.00,,,0.00,WeatherTracker,2013-01-01 19:20:00,
2013-01-01 11:25:00,20.8,13.8,30.68,West,271,0.0,3.0,74,0.00,,,0.00,WeatherTracker,2013-01-01 19:25:00,
2013-01-01 11:30:00,21.4,14.1,30.67,West,271,0.0,3.0,73,0.00,,,0.00,WeatherTracker,2013-01-01 19:30:00,
2013-01-01 11:35:00,21.4,13.8,30.67,West,271,2.0,3.0,72,0.00,,,0.00,WeatherTracker,2013-01-01 19:35:00,
2013-01-01 11:40:00,21.6,14.3,30.67,West,271,0.0,3.0,73,0.00,,,0.00,WeatherTracker,2013-01-01 19:40:00,
2013-01-01 11:45:00,21.9,14.0,30.66,West,271,3.0,5.0,71,0.00,,,0.00,WeatherTracker,2013-01-01 19:45:00,
2013-01-01 11:50:00,21.9,14.0,30.66,West,271,2.0,5.0,71,0.00,,,0.00,WeatherTracker,2013-01-01 19:50:00,
2013-01-01 11:55:00,21.5,13.3,30.66,West,271,2.0,4.0,70,0.00,,,0.00,WeatherTracker,2013-01-01 19:55:00,
2013-01-01 12:00:00,21.5,13.3,30.66,West,271,0.0,4.0,70,0.00,,,0.00,WeatherTracker,2013-01-01 20:00:00,
2013-01-01 12:05:00,21.5,13.3,30.66,West,272,2.0,5.0,70,0.00,,,0.00,WeatherTracker,2013-01-01 20:05:00,
2013-01-01 12:10:00,21.5,13.6,30.66,West,271,3.0,5.0,71,0.00,,,0.00,WeatherTracker,2013-01-01 20:10:00,
2013-01-01 12:15:00,21.6,13.7,30.66,West,263,5.0,5.0,71,0.00,,,0.00,WeatherTracker,2013-01-01 20:15:00,
2013-01-01 12:20:00,21.4,13.2,30.66,West,264,2.0,7.0,70,0.00,,,0.00,WeatherTracker,2013-01-01 20:20:00,
2013-01-01 12:25:00,21.3,12.7,30.66,West,264,1.0,7.0,69,0.00,,,0.00,WeatherTracker,2013-01-01 20:25:00,
2013-01-01 12:31:00,21.6,13.4,30.66,WSW,256,4.0,5.0,70,0.00,,,0.00,WeatherTracker,2013-01-01 20:31:00,
2013-01-01 12:36:00,21.7,13.1,30.65,WSW,257,1.0,6.0,69,0.00,,,0.00,WeatherTracker,2013-01-01 20:36:00,
2013-01-01 12:41:00,21.8,12.9,30.65,WSW,249,4.0,6.0,68,0.00,,,0.00,WeatherTracker,2013-01-01 20:41:00,
2013-01-01 12:46:00,21.6,12.4,30.65,WSW,250,2.0,5.0,67,0.00,,,0.00,WeatherTracker,2013-01-01 20:46:00,
2013-01-01 12:51:00,22.0,13.1,30.64,WSW,254,2.0,5.0,68,0.00,,,0.00,WeatherTracker,2013-01-01 20:51:00,
2013-01-01 12:56:00,22.4,13.1,30.64,West,260,1.0,4.0,67,0.00,,,0.00,WeatherTracker,2013-01-01 20:56:00,
2013-01-01 13:01:00,22.7,13.4,30.64,West,260,0.0,4.0,67,0.00,,,0.00,WeatherTracker,2013-01-01 21:01:00,
2013-01-01 13:06:00,23.0,13.4,30.64,West,260,2.0,4.0,66,0.00,,,0.00,WeatherTracker,2013-01-01 21:06:00,
2013-01-01 13:11:00,23.3,13.6,30.63,West,259,2.0,4.0,66,0.00,,,0.00,WeatherTracker,2013-01-01 21:11:00,
2013-01-01 13:16:00,24.0,14.3,30.63,West,259,0.0,3.0,66,0.00,,,0.00,WeatherTracker,2013-01-01 21:16:00,
2013-01-01 13:21:00,24.9,14.5,30.63,West,259,0.0,3.0,64,0.00,,,0.00,WeatherTracker,2013-01-01 21:21:00,
2013-01-01 13:26:00,24.9,14.5,30.63,West,259,0.0,3.0,64,0.00,,,0.00,WeatherTracker,2013-01-01 21:26:00,
2013-01-01 13:31:00,25.1,14.7,30.64,West,261,0.0,3.0,64,0.00,,,0.00,WeatherTracker,2013-01-01 21:31:00,
2013-01-01 13:36:00,25.0,14.6,30.64,West,260,1.0,4.0,64,0.00,,,0.00,WeatherTracker,2013-01-01 21:36:00,
2013-01-01 13:41:00,25.1,14.3,30.64,West,261,4.0,4.0,63,0.00,,,0.00,WeatherTracker,2013-01-01 21:41:00,
2013-01-01 13:46:00,24.1,13.7,30.64,West,261,2.0,5.0,64,0.00,,,0.00,WeatherTracker,2013-01-01 21:46:00,
2013-01-01 13:51:00,23.6,13.6,30.64,West,275,4.0,5.0,65,0.00,,,0.00,WeatherTracker,2013-01-01 21:51:00,
2013-01-01 13:56:00,23.3,13.6,30.64,West,277,1.0,5.0,66,0.00,,,0.00,WeatherTracker,2013-01-01 21:56:00,
2013-01-01 14:01:00,23.2,13.9,30.64,West,275,5.0,5.0,67,0.00,,,0.00,WeatherTracker,2013-01-01 22:01:00,
2013-01-01 14:06:00,23.3,13.6,30.64,West,275,2.0,5.0,66,0.00,,,0.00,WeatherTracker,2013-01-01 22:06:00,
2013-01-01 14:11:00,23.3,13.6,30.65,West,273,2.0,5.0,66,0.00,,,0.00,WeatherTracker,2013-01-01 22:11:00,
2013-01-01 14:17:00,23.2,13.6,30.65,West,264,4.0,6.0,66,0.00,,,0.00,WeatherTracker,2013-01-01 22:17:00,
2013-01-01 14:22:00,23.2,13.9,30.65,WSW,254,3.0,6.0,67,0.00,,,0.00,WeatherTracker,2013-01-01 22:22:00,
2013-01-01 14:27:00,23.3,14.0,30.65,WSW,258,6.0,6.0,67,0.00,,,0.00,WeatherTracker,2013-01-01 22:27:00,
2013-01-01 14:32:00,23.2,13.9,30.66,WSW,256,3.0,6.0,67,0.00,,,0.00,WeatherTracker,2013-01-01 22:32:00,
2013-01-01 14:37:00,23.5,14.5,30.66,West,259,3.0,6.0,68,0.00,,,0.00,WeatherTracker,2013-01-01 22:37:00,
2013-01-01 14:42:00,23.8,14.5,30.66,WSW,255,2.0,6.0,67,0.00,,,0.00,WeatherTracker,2013-01-01 22:42:00,
2013-01-01 14:47:00,23.9,14.6,30.66,WSW,254,4.0,5.0,67,0.00,,,0.00,WeatherTracker,2013-01-01 22:47:00,
2013-01-01 14:52:00,23.9,14.2,30.67,West,265,4.0,6.0,66,0.00,,,0.00,WeatherTracker,2013-01-01 22:52:00,
2013-01-01 14:57:00,23.9,14.2,30.67,West,264,5.0,7.0,66,0.00,,,0.00,WeatherTracker,2013-01-01 22:57:00,
2013-01-01 15:02:00,23.9,14.2,30.67,West,261,1.0,7.0,66,0.00,,,0.00,WeatherTracker,2013-01-01 23:02:00,
2013-01-01 15:07:00,24.2,14.5,30.67,West,261,1.0,5.0,66,0.00,,,0.00,WeatherTracker,2013-01-01 23:07:00,
2013-01-01 15:12:00,24.4,14.7,30.67,West,261,2.0,4.0,66,0.00,,,0.00,WeatherTracker,2013-01-01 23:12:00,
2013-01-01 15:17:00,24.6,14.9,30.67,West,261,0.0,4.0,66,0.00,,,0.00,WeatherTracker,2013-01-01 23:17:00,
2013-01-01 15:22:00,24.9,14.8,30.68,West,261,1.0,3.0,65,0.00,,,0.00,WeatherTracker,2013-01-01 23:22:00,
2013-01-01 15:27:00,25.1,14.7,30.68,West,261,3.0,3.0,64,0.00,,,0.00,WeatherTracker,2013-01-01 23:27:00,
2013-01-01 15:32:00,24.4,13.6,30.68,West,261,0.0,4.0,63,0.00,,,0.00,WeatherTracker,2013-01-01 23:32:00,
2013-01-01 15:37:00,23.9,13.5,30.68,West,261,0.0,4.0,64,0.00,,,0.00,WeatherTracker,2013-01-01 23:37:00,
2013-01-01 15:42:00,23.5,13.5,30.68,West,261,0.0,4.0,65,0.00,,,0.00,WeatherTracker,2013-01-01 23:42:00,
2013-01-01 15:48:00,23.5,13.8,30.68,West,261,0.0,0.0,66,0.00,,,0.00,WeatherTracker,2013-01-01 23:48:00,
2013-01-01 15:53:00,22.9,13.3,30.68,West,261,0.0,3.0,66,0.00,,,0.00,WeatherTracker,2013-01-01 23:53:00,
2013-01-01 15:58:00,22.2,12.9,30.68,West,261,0.0,3.0,67,0.00,,,0.00,WeatherTracker,2013-01-01 23:58:00,
2013-01-01 16:03:00,21.5,12.9,30.68,West,261,0.0,3.0,69,0.00,,,0.00,WeatherTracker,2013-01-02 00:03:00,
2013-01-01 16:08:00,21.2,13.0,30.69,West,261,0.0,0.0,70,0.00,,,0.00,WeatherTracker,2013-01-02 00:08:00,
2013-01-01 16:13:00,20.9,12.7,30.69,West,261,0.0,1.0,70,0.00,,,0.00,WeatherTracker,2013-01-02 00:13:00,
2013-01-01 16:18:00,20.5,12.6,30.69,West,261,0.0,1.0,71,0.00,,,0.00,WeatherTracker,2013-01-02 00:18:00,
2013-01-01 16:23:00,20.1,12.2,30.69,West,261,0.0,0.0,71,0.00,,,0.00,WeatherTracker,2013-01-02 00:23:00,
2013-01-01 16:28:00,19.3,11.1,30.70,West,261,0.0,3.0,70,0.00,,,0.00,WeatherTracker,2013-01-02 00:28:00,
2013-01-01 16:33:00,18.5,11.0,30.70,West,261,0.0,3.0,72,0.00,,,0.00,WeatherTracker,2013-01-02 00:33:00,
2013-01-01 16:38:00,17.4,10.3,30.70,West,261,2.0,3.0,73,0.00,,,0.00,WeatherTracker,2013-01-02 00:38:00,
2013-01-01 16:43:00,16.2,10.0,30.70,West,261,0.0,3.0,76,0.00,,,0.00,WeatherTracker,2013-01-02 00:43:00,
2013-01-01 16:48:00,16.2,10.0,30.70,West,261,0.0,3.0,76,0.00,,,0.00,WeatherTracker,2013-01-02 00:48:00,
2013-01-01 16:53:00,16.1,10.2,30.70,West,261,0.0,2.0,77,0.00,,,0.00,WeatherTracker,2013-01-02 00:53:00,
2013-01-01 16:58:00,16.0,10.1,30.70,West,261,0.0,0.0,77,0.00,,,0.00,WeatherTracker,2013-01-02 00:58:00,
2013-01-01 17:03:00,15.9,10.0,30.70,West,261,0.0,0.0,77,0.00,,,0.00,WeatherTracker,2013-01-02 01:03:00,
2013-01-01 17:08:00,15.7,9.5,30.70,West,261,0.0,0.0,76,0.00,,,0.00,WeatherTracker,2013-01-02 01:08:00,
2013-01-01 17:13:00,15.1,8.9,30.71,West,261,0.0,0.0,76,0.00,,,0.00,WeatherTracker,2013-01-02 01:13:00,
2013-01-01 17:18:00,13.2,6.8,30.71,West,261,3.0,3.0,75,0.00,,,0.00,WeatherTracker,2013-01-02 01:18:00,
2013-01-01 17:23:00,12.1,6.9,30.71,West,261,1.0,3.0,79,0.00,,,0.00,WeatherTracker,2013-01-02 01:23:00,
2013-01-01 17:28:00,12.7,7.7,30.71,West,261,0.0,3.0,80,0.00,,,0.00,WeatherTracker,2013-01-02 01:28:00,
2013-01-01 17:33:00,12.8,7.8,30.71,West,263,3.0,3.0,80,0.00,,,0.00,WeatherTracker,2013-01-02 01:33:00,
2013-01-01 17:38:00,12.6,7.3,30.72,West,263,1.0,4.0,79,0.00,,,0.00,WeatherTracker,2013-01-02 01:38:00,
2013-01-01 17:44:00,12.5,7.5,30.72,West,263,2.0,4.0,80,0.00,,,0.00,WeatherTracker,2013-01-02 01:44:00,
2013-01-01 17:49:00,12.5,7.8,30.72,West,263,0.0,3.0,81,0.00,,,0.00,WeatherTracker,2013-01-02 01:49:00,
2013-01-01 17:54:00,12.0,7.3,30.73,West,263,2.0,3.0,81,0.00,,,0.00,WeatherTracker,2013-01-02 01:54:00,
2013-01-01 17:59:00,11.3,6.6,30.73,West,263,2.0,3.0,81,0.00,,,0.00,WeatherTracker,2013-01-02 01:59:00,
2013-01-01 18:04:00,10.3,5.6,30.73,West,263,2.0,3.0,81,0.00,,,0.00,WeatherTracker,2013-01-02 02:04:00,
2013-01-01 18:09:00,11.4,7.0,30.73,West,263,3.0,3.0,82,0.00,,,0.00,WeatherTracker,2013-01-02 02:09:00,
2013-01-01 18:14:00,11.7,7.3,30.73,West,263,3.0,3.0,82,0.00,,,0.00,WeatherTracker,2013-01-02 02:14:00,
2013-01-01 18:19:00,11.6,7.2,30.73,West,263,2.0,4.0,82,0.00,,,0.00,WeatherTracker,2013-01-02 02:19:00,
2013-01-01 18:24:00,11.4,7.0,30.73,West,263,2.0,4.0,82,0.00,,,0.00,WeatherTracker,2013-01-02 02:24:00,
2013-01-01 18:29:00,10.9,6.2,30.73,West,263,2.0,3.0,81,0.00,,,0.00,WeatherTracker,2013-01-02 02:29:00,
2013-01-01 18:34:00,10.4,5.7,30.74,West,267,3.0,4.0,81,0.00,,,0.00,WeatherTracker,2013-01-02 02:34:00,
2013-01-01 18:39:00,10.0,5.6,30.74,South,178,2.0,4.0,82,0.00,,,0.00,WeatherTracker,2013-01-02 02:39:00,
2013-01-01 18:44:00,8.9,4.3,30.75,South,178,3.0,4.0,81,0.00,,,0.00,WeatherTracker,2013-01-02 02:44:00,
2013-01-01 18:49:00,8.9,4.5,30.75,South,178,0.0,4.0,82,0.00,,,0.00,WeatherTracker,2013-01-02 02:49:00,
2013-01-01 18:54:00,9.3,5.5,30.75,South,178,0.0,4.0,84,0.00,,,0.00,WeatherTracker,2013-01-02 02:54:00,
2013-01-01 18:59:00,9.6,5.8,30.75,South,178,0.0,3.0,84,0.00,,,0.00,WeatherTracker,2013-01-02 02:59:00,
2013-01-01 19:04:00,9.9,6.3,30.75,South,178,0.0,0.0,85,0.00,,,0.00,WeatherTracker,2013-01-02 03:04:00,
2013-01-01 19:09:00,9.4,5.6,30.74,South,178,0.0,0.0,84,0.00,,,0.00,WeatherTracker,2013-01-02 03:09:00,
2013-01-01 19:14:00,9.0,4.9,30.75,South,178,0.0,3.0,83,0.00,,,0.00,WeatherTracker,2013-01-02 03:14:00,
2013-01-01 19:19:00,8.9,5.1,30.75,South,178,0.0,3.0,84,0.00,,,0.00,WeatherTracker,2013-01-02 03:19:00,
2013-01-01 19:24:00,9.0,5.2,30.75,South,178,0.0,0.0,84,0.00,,,0.00,WeatherTracker,2013-01-02 03:24:00,
2013-01-01 19:29:00,8.8,5.0,30.75,South,178,0.0,0.0,84,0.00,,,0.00,WeatherTracker,2013-01-02 03:29:00,
2013-01-01 19:34:00,8.6,4.8,30.75,South,178,2.0,0.0,84,0.00,,,0.00,WeatherTracker,2013-01-02 03:34:00,
2013-01-01 19:39:00,8.2,4.6,30.75,South,178,1.0,3.0,85,0.00,,,0.00,WeatherTracker,2013-01-02 03:39:00,
2013-01-01 19:44:00,8.0,4.4,30.75,South,178,0.0,4.0,85,0.00,,,0.00,WeatherTracker,2013-01-02 03:44:00,
2013-01-01 19:49:00,7.9,4.3,30.76,South,178,0.0,4.0,85,0.00,,,0.00,WeatherTracker,2013-01-02 03:49:00,
2013-01-01 19:54:00,7.6,4.1,30.75,South,178,0.0,2.0,85,0.00,,,0.00,WeatherTracker,2013-01-02 03:54:00,
2013-01-01 19:59:00,7.3,3.8,30.75,South,178,1.0,1.0,85,0.00,,,0.00,WeatherTracker,2013-01-02 03:59:00,
2013-01-01 20:05:00,7.2,3.7,30.76,South,178,2.0,3.0,85,0.00,,,0.00,WeatherTracker,2013-01-02 04:05:00,
2013-01-01 20:10:00,7.8,4.2,30.76,South,178,2.0,3.0,85,0.00,,,0.00,WeatherTracker,2013-01-02 04:10:00,
2013-01-01 20:15:00,8.2,4.9,30.76,South,178,0.0,3.0,86,0.00,,,0.00,WeatherTracker,2013-01-02 04:15:00,
2013-01-01 20:20:00,7.9,4.3,30.76,South,178,0.0,2.0,85,0.00,,,0.00,WeatherTracker,2013-01-02 04:20:00,
2013-01-01 20:25:00,7.3,3.8,30.76,South,178,0.0,1.0,85,0.00,,,0.00,WeatherTracker,2013-01-02 04:25:00,
2013-01-01 20:30:00,7.2,3.7,30.75,South,178,0.0,1.0,85,0.00,,,0.00,WeatherTracker,2013-01-02 04:30:00,
2013-01-01 20:35:00,7.2,3.7,30.75,South,178,0.0,1.0,85,0.00,,,0.00,WeatherTracker,2013-01-02 04:35:00,
2013-01-01 20:40:00,7.3,3.8,30.75,South,178,0.0,0.0,85,0.00,,,0.00,WeatherTracker,2013-01-02 04:40:00,
2013-01-01 20:45:00,7.1,3.6,30.76,South,178,0.0,1.0,85,0.00,,,0.00,WeatherTracker,2013-01-02 04:45:00,
2013-01-01 20:50:00,6.9,3.4,30.76,South,178,0.0,1.0,85,0.00,,,0.00,WeatherTracker,2013-01-02 04:50:00,
2013-01-01 20:55:00,6.7,3.2,30.76,South,178,0.0,0.0,85,0.00,,,0.00,WeatherTracker,2013-01-02 04:55:00,
2013-01-01 21:00:00,6.5,3.0,30.76,South,178,0.0,0.0,85,0.00,,,0.00,WeatherTracker,2013-01-02 05:00:00,
2013-01-01 21:01:00,6.5,3.0,30.76,South,178,0.0,0.0,85,0.00,,,0.00,WeatherTracker,2013-01-02 05:01:00,
2013-01-01 21:06:00,6.3,2.8,30.76,South,178,2.0,0.0,85,0.00,,,0.00,WeatherTracker,2013-01-02 05:06:00,
2013-01-01 21:11:00,6.1,2.6,30.76,South,178,0.0,2.0,85,0.00,,,0.00,WeatherTracker,2013-01-02 05:11:00,
2013-01-01 21:16:00,5.9,2.4,30.76,South,178,0.0,2.0,85,0.00,,,0.00,WeatherTracker,2013-01-02 05:16:00,
2013-01-01 21:21:00,5.8,2.3,30.76,South,178,2.0,0.0,85,0.00,,,0.00,WeatherTracker,2013-01-02 05:21:00,
2013-01-01 21:26:00,5.8,2.3,30.76,South,178,1.0,2.0,85,0.00,,,0.00,WeatherTracker,2013-01-02 05:26:00,
2013-01-01 21:32:00,5.8,2.5,30.77,South,178,2.0,3.0,86,0.00,,,0.00,WeatherTracker,2013-01-02 05:32:00,
2013-01-01 21:37:00,6.1,2.8,30.76,South,178,1.0,3.0,86,0.00,,,0.00,WeatherTracker,2013-01-02 05:37:00,
2013-01-01 21:42:00,6.7,3.4,30.76,South,178,3.0,3.0,86,0.00,,,0.00,WeatherTracker,2013-01-02 05:42:00,
2013-01-01 21:47:00,7.3,4.3,30.76,South,178,2.0,3.0,87,0.00,,,0.00,WeatherTracker,2013-01-02 05:47:00,
2013-01-01 21:52:00,7.6,4.3,30.76,South,178,2.0,3.0,86,0.00,,,0.00,WeatherTracker,2013-01-02 05:52:00,
2013-01-01 21:57:00,7.8,4.8,30.75,South,178,0.0,3.0,87,0.00,,,0.00,WeatherTracker,2013-01-02 05:57:00,
2013-01-01 22:02:00,8.0,4.9,30.76,South,178,0.0,3.0,87,0.00,,,0.00,WeatherTracker,2013-01-02 06:02:00,
2013-01-01 22:07:00,7.9,4.6,30.75,South,178,0.0,2.0,86,0.00,,,0.00,WeatherTracker,2013-01-02 06:07:00,
2013-01-01 22:12:00,6.9,3.6,30.75,East,91,3.0,0.0,86,0.00,,,0.00,WeatherTracker,2013-01-02 06:12:00,
2013-01-01 22:17:00,5.7,2.2,30.75,East,90,1.0,4.0,85,0.00,,,0.00,WeatherTracker,2013-01-02 06:17:00,
2013-01-01 22:22:00,5.6,2.1,30.75,East,90,0.0,4.0,85,0.00,,,0.00,WeatherTracker,2013-01-02 06:22:00,
2013-01-01 22:27:00,5.1,1.6,30.76,East,94,2.0,3.0,85,0.00,,,0.00,WeatherTracker,2013-01-02 06:27:00,
2013-01-01 22:32:00,5.6,2.1,30.76,East,94,1.0,3.0,85,0.00,,,0.00,WeatherTracker,2013-01-02 06:32:00,
2013-01-01 22:37:00,6.3,3.0,30.76,East,94,0.0,3.0,86,0.00,,,0.00,WeatherTracker,2013-01-02 06:37:00,
2013-01-01 22:42:00,6.8,3.5,30.75,East,94,0.0,2.0,86,0.00,,,0.00,WeatherTracker,2013-01-02 06:42:00,
2013-01-01 22:47:00,7.0,3.7,30.75,East,94,2.0,0.0,86,0.00,,,0.00,WeatherTracker,2013-01-02 06:47:00,
2013-01-01 22:52:00,6.7,3.4,30.75,East,94,0.0,2.0,86,0.00,,,0.00,WeatherTracker,2013-01-02 06:52:00,
2013-01-01 22:57:00,6.0,2.5,30.75,East,94,2.0,2.0,85,0.00,,,0.00,WeatherTracker,2013-01-02 06:57:00,
2013-01-01 23:02:00,6.0,2.5,30.75,East,94,1.0,3.0,85,0.00,,,0.00,WeatherTracker,2013-01-02 07:02:00,
2013-01-01 23:07:00,6.4,2.9,30.75,East,94,0.0,3.0,85,0.00,,,0.00,WeatherTracker,2013-01-02 07:07:00,
2013-01-01 23:12:00,6.5,3.0,30.75,East,94,1.0,2.0,85,0.00,,,0.00,WeatherTracker,2013-01-02 07:12:00,
2013-01-01 23:17:00,5.9,2.4,30.75,East,94,2.0,2.0,85,0.00,,,0.00,WeatherTracker,2013-01-02 07:17:00,
2013-01-01 23:22:00,5.4,1.9,30.75,East,94,0.0,2.0,85,0.00,,,0.00,WeatherTracker,2013-01-02 07:22:00,
2013-01-01 23:27:00,5.6,2.1,30.75,East,94,0.0,2.0,85,0.00,,,0.00,WeatherTracker,2013-01-02 07:27:00,
2013-01-01 23:32:00,5.9,2.6,30.75,East,94,0.0,2.0,86,0.00,,,0.00,WeatherTracker,2013-01-02 07:32:00,
2013-01-01 23:37:00,6.3,3.0,30.75,East,94,0.0,0.0,86,0.00,,,0.00,WeatherTracker,2013-01-02 07:37:00,
2013-01-01 23:42:00,6.5,3.2,30.74,East,94,0.0,0.0,86,0.00,,,0.00,WeatherTracker,2013-01-02 07:42:00,
2013-01-01 23:47:00,6.2,2.9,30.74,East,94,0.0,0.0,86,0.00,,,0.00,WeatherTracker,2013-01-02 07:47:00,
2013-01-01 23:53:00,5.4,1.9,30.74,East,94,0.0,2.0,85,0.00,,,0.00,WeatherTracker,2013-01-02 07:53:00,
2013-01-01 23:58:00,5.0,1.5,30.74,East,94,1.0,2.0,85,0.00,,,0.00,WeatherTracker,2013-01-02 07:58:00,